Preview of NWS' New Version of Forecast
This preview is not operational and should not be used for support decisions.

Regional Weather Roundup (RWR)

Issued by Philadelphia/Mt Holly (PHI)

                            
000
ASUS41 KPHI 181512
RWRPHI

REGIONAL WEATHER ROUNDUP
NATIONAL WEATHER SERVICE MOUNT HOLLY NJ
1000 AM EST FRI JAN 18 2019

NOTE:  "FAIR" INDICATES FEW OR NO CLOUDS BELOW 12,000 FEET WITH NO
SIGNIFICANT WEATHER AND/OR OBSTRUCTIONS TO VISIBILITY.

 * = STATION DOES NOT REPORT PRECIPITATION (E.G. RAIN, SNOW, ETC.) 
        OR FOG.

NJZ015>026-181600-
SOUTHERN NEW JERSEY
  
CITY           SKY/WX    TMP DP  RH WIND       PRES   REMARKS
POMONA         CLOUDY    35  35 100 NE3       30.11R                  
WILDWOOD*      LGT RAIN  38  37  97 VRB3      30.11R FOG              
MILLVILLE      CLOUDY    34  33  96 N3        30.11R FOG              
WRIGHTSTOWN    CLOUDY    33  32  96 CALM      30.08R                  
MOUNT HOLLY    CLOUDY    32  29  88 CALM      30.12R FOG              
TRENTON        LGT SNOW  32  30  92 CALM      30.11R FOG              

$$
NJZ001>014-181600-
NORTHERN NEW JERSEY
  
CITY           SKY/WX    TMP DP  RH WIND       PRES   REMARKS
SUSSEX         MIX PCPN  27  24  89 CALM      30.09S                  
ANDOVER*         N/A     26  22  84 CALM      30.09S                  
MORRISTOWN     CLOUDY    30  28  93 CALM      30.12S                  
NEWARK         FLURRIES  32  29  88 N6        30.12S WCI  26          
TETERBORO      CLOUDY    32  29  88 VRB5      30.11S WCI  27          
CALDWELL       CLOUDY    30  27  88 CALM      30.12S FOG              
SOMERVILLE     CLOUDY    31  27  85 CALM      30.10R                  
ALLAIRE*       CLOUDY    35  34  96 N3        30.11S FOG              
TOMS RIVER*    CLOUDY    36  34  93 N3        30.12R FOG              

$$
PAZ043-044-047-054-055-060>062-066>071-181600-
EASTERN PENNSYLVANIA
  
CITY           SKY/WX    TMP DP  RH WIND       PRES   REMARKS
PHILADELPHIA   CLOUDY    32  30  92 NE5       30.12S FOG     WCI  27  
NORTH PHILA    CLOUDY    33  29  85 N3        30.13R FOG              
BLUE BELL*     FAIR      30  30 100 CALM      30.12S                  
DOYLESTOWN     CLOUDY    30  26  85 CALM      30.09R                  
QUAKERTOWN*    CLOUDY    28  27  93 CALM      30.10R FOG              
PERKASIE*      CLOUDY    28  28 100 CALM      30.10R FOG              
POTTSTOWN      CLOUDY    28  28 100 CALM      30.12R FOG              
LANCASTER      CLOUDY    32  28  85 CALM      30.10R FOG              
COATESVILLE    FOG       30  30 100 CALM      30.10R VSB 1/4          
READING        CLOUDY    30  28  92 N5        30.10R WCI  25          
ALLENTOWN      CLOUDY    30  25  81 NE5       30.10R WCI  25          
MOUNT POCONO   CLOUDY    26  26 100 S6        29.99S WCI  19          
HAZLETON       LGT SNOW N/A N/A N/A CALM      30.05R                  
LEHIGHTON      CLOUDY    30  27  86 CALM      30.10R                  
WILKES BARRE   LGT SNOW  28  25  88 CALM      30.05R FOG              

$$
DEZALL-MDZ008-012-015-019-020-181600-
DELAWARE AND EASTERN MARYLAND
  
CITY           SKY/WX    TMP DP  RH WIND       PRES   REMARKS
WILMINGTON     CLOUDY    33  31  92 CALM      30.13R FOG              
DOVER          CLOUDY    35  35  99 NW3       30.11R                  
GEORGETOWN     CLOUDY    39  37  92 CALM      30.10R FOG              
EASTON         CLOUDY    36  36 100 CALM      30.15R FOG              
ABERDEEN       FOG       32  30  93 CALM      30.13R VSB 1            
PATUXENT       FAIR      39  36  89 N6        30.11  WCI  35          
OCEAN CITY     CLOUDY    44  39  82 W6        30.10R                  
WALLOPS ISLAND CLOUDY    45  37  73 W8        30.10R                  
CAMBRIDGE      CLOUDY    37  36  93 CALM      30.12R                  
SALISBURY      CLOUDY    41  38  89 CALM      30.10R                  

$$
PAZ001-021-NYZ056-072-MDZ011-DCZ001-181600-
OTHER NEARBY LOCATIONS
  
CITY           SKY/WX    TMP DP  RH WIND       PRES   REMARKS
HARRISBURG     LGT SNOW  29  25  85 CALM      30.10R FOG              
STATE COLLEGE  CLOUDY    28  27  93 W3        30.04R FOG              
WILLIAMSPORT   CLOUDY    29  25  85 CALM      30.08R FOG              
BINGHAMTON     LGT SNOW  24  22  91 S7        29.97S VSB 1   WCI  16  
NEW YORK CITY  CLOUDY    34  31  88 MISG      30.13S                  
BALTIMORE      FOG       33  32  96 CALM      30.11R VSB 1/2          
WASHINGTON DC  CLOUDY    37  32  82 NW5       30.13R HAZE    WCI  33  

$$